Time,TemperatureF,DewpointF,PressureIn,WindDirection,WindDirectionDegrees,WindSpeedMPH,WindSpeedGustMPH,Humidity,HourlyPrecipIn,Conditions,Clouds,dailyrainin,SoftwareType,DateUTC
2013-03-30 00:02:00,47.0,33.0,30.23,NE,55,0.0,0.0,57,0.00,,,0.00,,2013-03-30 04:02:00,
2013-03-30 00:12:00,47.0,33.0,30.23,NE,55,0.0,0.0,57,0.00,,,0.00,,2013-03-30 04:12:00,
2013-03-30 00:23:00,47.0,33.0,30.23,NE,55,0.0,0.0,58,0.00,,,0.00,,2013-03-30 04:23:00,
2013-03-30 00:32:00,46.0,32.0,30.23,NE,55,0.0,0.0,59,0.00,,,0.00,,2013-03-30 04:32:00,
2013-03-30 00:42:00,46.0,32.0,30.23,NE,55,0.0,0.0,59,0.00,,,0.00,,2013-03-30 04:42:00,
2013-03-30 00:53:00,46.0,33.0,30.22,NE,55,0.0,1.0,60,0.00,,,0.00,,2013-03-30 04:53:00,
2013-03-30 01:02:00,46.0,33.0,30.22,NE,55,0.0,0.0,60,0.00,,,0.00,,2013-03-30 05:02:00,
2013-03-30 01:12:00,46.0,33.0,30.22,NE,55,0.0,0.0,60,0.00,,,0.00,,2013-03-30 05:12:00,
2013-03-30 01:22:00,45.0,32.0,30.22,NE,55,0.0,0.0,60,0.00,,,0.00,,2013-03-30 05:22:00,
2013-03-30 01:32:00,45.0,32.0,30.22,NE,55,0.0,0.0,61,0.00,,,0.00,,2013-03-30 05:32:00,
2013-03-30 01:42:00,45.0,32.0,30.22,NE,55,0.0,0.0,61,0.00,,,0.00,,2013-03-30 05:42:00,
2013-03-30 01:52:00,45.0,32.0,30.22,NE,55,0.0,0.0,61,0.00,,,0.00,,2013-03-30 05:52:00,
2013-03-30 02:02:00,44.0,31.0,30.22,NE,55,0.0,1.0,60,0.00,,,0.00,,2013-03-30 06:02:00,
2013-03-30 02:11:00,44.0,31.0,30.22,NE,55,0.0,1.0,60,0.00,,,0.00,,2013-03-30 06:11:00,
2013-03-30 02:22:00,44.0,33.0,30.22,ENE,64,0.0,4.0,64,0.00,,,0.00,,2013-03-30 06:22:00,
2013-03-30 02:32:00,44.0,33.0,30.22,ENE,71,0.0,3.0,64,0.00,,,0.00,,2013-03-30 06:32:00,
2013-03-30 02:42:00,44.0,33.0,30.22,ENE,71,0.0,3.0,64,0.00,,,0.00,,2013-03-30 06:42:00,
2013-03-30 02:52:00,44.0,32.0,30.22,ENE,71,0.0,1.0,63,0.00,,,0.00,,2013-03-30 06:52:00,
2013-03-30 03:02:00,44.0,33.0,30.21,ENE,71,0.0,3.0,64,0.00,,,0.00,,2013-03-30 07:02:00,
2013-03-30 03:12:00,44.0,33.0,30.21,ENE,71,0.0,3.0,64,0.00,,,0.00,,2013-03-30 07:12:00,
2013-03-30 03:22:00,44.0,33.0,30.21,East,81,0.0,3.0,64,0.00,,,0.00,,2013-03-30 07:22:00,
2013-03-30 03:32:00,43.0,32.0,30.22,ENE,77,0.0,3.0,65,0.00,,,0.00,,2013-03-30 07:32:00,
2013-03-30 03:42:00,43.0,32.0,30.22,ENE,77,0.0,3.0,65,0.00,,,0.00,,2013-03-30 07:42:00,
2013-03-30 03:52:00,43.0,32.0,30.21,East,94,0.0,5.0,66,0.00,,,0.00,,2013-03-30 07:52:00,
2013-03-30 04:02:00,43.0,32.0,30.21,East,85,1.0,5.0,66,0.00,,,0.00,,2013-03-30 08:02:00,
2013-03-30 04:12:00,43.0,32.0,30.21,East,85,1.0,5.0,66,0.00,,,0.00,,2013-03-30 08:12:00,
2013-03-30 04:21:00,43.0,33.0,30.21,East,88,1.0,5.0,67,0.00,,,0.00,,2013-03-30 08:21:00,
2013-03-30 04:32:00,43.0,33.0,30.20,East,87,2.0,6.0,67,0.00,,,0.00,,2013-03-30 08:32:00,
2013-03-30 04:42:00,43.0,33.0,30.20,East,87,2.0,6.0,67,0.00,,,0.00,,2013-03-30 08:42:00,
2013-03-30 04:53:00,43.0,33.0,30.19,East,82,1.0,5.0,67,0.00,,,0.00,,2013-03-30 08:53:00,
2013-03-30 05:02:00,42.0,32.0,30.19,East,81,1.0,5.0,68,0.00,,,0.00,,2013-03-30 09:02:00,
2013-03-30 05:12:00,42.0,33.0,30.19,ENE,74,0.0,4.0,69,0.00,,,0.00,,2013-03-30 09:12:00,
2013-03-30 05:22:00,42.0,33.0,30.19,ENE,74,0.0,4.0,69,0.00,,,0.00,,2013-03-30 09:22:00,
2013-03-30 05:33:00,42.0,33.0,30.19,East,93,2.0,6.0,69,0.00,,,0.00,,2013-03-30 09:33:00,
2013-03-30 05:42:00,42.0,33.0,30.19,East,93,2.0,6.0,69,0.00,,,0.00,,2013-03-30 09:42:00,
2013-03-30 05:53:00,42.0,33.0,30.19,East,96,1.0,7.0,70,0.00,,,0.00,,2013-03-30 09:53:00,
2013-03-30 06:02:00,42.0,33.0,30.20,East,94,1.0,5.0,70,0.00,,,0.00,,2013-03-30 10:02:00,
2013-03-30 06:12:00,42.0,33.0,30.20,East,94,1.0,5.0,70,0.00,,,0.00,,2013-03-30 10:12:00,
2013-03-30 06:23:00,41.0,32.0,30.20,East,100,1.0,5.0,70,0.00,,,0.00,,2013-03-30 10:23:00,
2013-03-30 06:32:00,41.0,32.0,30.20,ESE,107,2.0,6.0,71,0.00,,,0.00,,2013-03-30 10:32:00,
2013-03-30 06:42:00,41.0,32.0,30.20,ESE,107,2.0,6.0,71,0.00,,,0.00,,2013-03-30 10:42:00,
2013-03-30 06:52:00,41.0,32.0,30.21,ESE,106,1.0,5.0,71,0.00,,,0.00,,2013-03-30 10:52:00,
2013-03-30 07:03:00,41.0,32.0,30.21,ESE,107,0.0,4.0,71,0.00,,,0.00,,2013-03-30 11:03:00,
2013-03-30 07:12:00,41.0,32.0,30.21,ESE,107,0.0,4.0,71,0.00,,,0.00,,2013-03-30 11:12:00,
2013-03-30 07:22:00,41.0,33.0,30.20,East,99,2.0,5.0,73,0.00,,,0.00,,2013-03-30 11:22:00,
2013-03-30 07:32:00,41.0,33.0,30.20,ESE,109,1.0,5.0,73,0.00,,,0.00,,2013-03-30 11:32:00,
2013-03-30 07:42:00,41.0,33.0,30.20,ESE,109,1.0,5.0,73,0.00,,,0.00,,2013-03-30 11:42:00,
2013-03-30 07:53:00,40.0,32.0,30.20,East,93,3.0,6.0,74,0.00,,,0.00,,2013-03-30 11:53:00,
2013-03-30 08:02:00,40.0,32.0,30.21,ENE,77,1.0,5.0,74,0.00,,,0.00,,2013-03-30 12:02:00,
2013-03-30 08:12:00,40.0,32.0,30.21,ENE,77,1.0,5.0,74,0.00,,,0.00,,2013-03-30 12:12:00,
2013-03-30 08:22:00,40.0,33.0,30.20,ENE,78,1.0,5.0,75,0.00,,,0.00,,2013-03-30 12:22:00,
2013-03-30 08:32:00,40.0,33.0,30.20,East,80,2.0,6.0,75,0.00,,,0.00,,2013-03-30 12:32:00,
2013-03-30 08:42:00,40.0,33.0,30.20,East,80,2.0,6.0,75,0.00,,,0.00,,2013-03-30 12:42:00,
2013-03-30 08:53:00,41.0,33.0,30.20,East,88,3.0,6.0,74,0.00,,,0.00,,2013-03-30 12:53:00,
2013-03-30 09:02:00,42.0,34.0,30.20,East,91,2.0,7.0,72,0.00,,,0.00,,2013-03-30 13:02:00,
2013-03-30 09:12:00,42.0,34.0,30.20,East,91,2.0,7.0,72,0.00,,,0.00,,2013-03-30 13:12:00,
2013-03-30 09:22:00,43.0,34.0,30.21,ESE,112,1.0,5.0,71,0.00,,,0.00,,2013-03-30 13:22:00,
2013-03-30 09:32:00,45.0,35.0,30.20,East,95,4.0,8.0,69,0.00,,,0.00,,2013-03-30 13:32:00,
2013-03-30 09:42:00,45.0,35.0,30.20,East,95,4.0,8.0,69,0.00,,,0.00,,2013-03-30 13:42:00,
2013-03-30 09:52:00,45.0,35.0,30.19,East,97,4.0,9.0,68,0.00,,,0.00,,2013-03-30 13:52:00,
2013-03-30 10:02:00,45.0,35.0,30.19,East,93,3.0,9.0,69,0.00,,,0.00,,2013-03-30 14:02:00,
2013-03-30 10:11:00,45.0,35.0,30.19,East,93,3.0,9.0,69,0.00,,,0.00,,2013-03-30 14:11:00,
2013-03-30 10:22:00,45.0,35.0,30.18,East,101,3.0,10.0,67,0.00,,,0.00,,2013-03-30 14:22:00,
2013-03-30 10:32:00,47.0,36.0,30.19,ESE,122,3.0,10.0,66,0.00,,,0.00,,2013-03-30 14:32:00,
2013-03-30 10:42:00,47.0,36.0,30.19,ESE,122,3.0,10.0,66,0.00,,,0.00,,2013-03-30 14:42:00,
2013-03-30 10:52:00,48.0,37.0,30.18,ESE,122,2.0,8.0,65,0.00,,,0.00,,2013-03-30 14:52:00,
2013-03-30 11:02:00,49.0,37.0,30.18,SE,129,4.0,9.0,63,0.00,,,0.00,,2013-03-30 15:02:00,
2013-03-30 11:12:00,49.0,37.0,30.18,SE,129,4.0,9.0,63,0.00,,,0.00,,2013-03-30 15:12:00,
2013-03-30 11:22:00,50.0,38.0,30.18,ESE,115,3.0,8.0,62,0.00,,,0.00,,2013-03-30 15:22:00,
2013-03-30 11:33:00,52.0,39.0,30.17,East,101,3.0,10.0,61,0.00,,,0.00,,2013-03-30 15:33:00,
2013-03-30 11:43:00,52.0,39.0,30.17,East,101,3.0,10.0,61,0.00,,,0.00,,2013-03-30 15:43:00,
2013-03-30 11:53:00,53.0,39.0,30.17,ESE,114,3.0,7.0,58,0.00,,,0.00,,2013-03-30 15:53:00,
2013-03-30 12:03:00,54.0,39.0,30.15,SE,144,4.0,9.0,56,0.00,,,0.00,,2013-03-30 16:03:00,
2013-03-30 12:13:00,54.0,39.0,30.15,SSE,152,1.0,9.0,56,0.00,,,0.00,,2013-03-30 16:13:00,
2013-03-30 12:23:00,54.0,39.0,30.15,SSE,152,1.0,9.0,56,0.00,,,0.00,,2013-03-30 16:23:00,
2013-03-30 12:33:00,55.0,40.0,30.15,ESE,113,3.0,9.0,56,0.00,,,0.00,,2013-03-30 16:33:00,
2013-03-30 12:43:00,55.0,40.0,30.15,ESE,113,3.0,9.0,56,0.00,,,0.00,,2013-03-30 16:43:00,
2013-03-30 12:52:00,55.0,38.0,30.14,SE,144,3.0,8.0,53,0.00,,,0.00,,2013-03-30 16:52:00,
2013-03-30 13:02:00,56.0,37.0,30.13,SE,132,3.0,9.0,49,0.00,,,0.00,,2013-03-30 17:02:00,
2013-03-30 13:13:00,56.0,37.0,30.13,SE,132,3.0,9.0,49,0.00,,,0.00,,2013-03-30 17:13:00,
2013-03-30 13:22:00,56.0,37.0,30.12,SSE,157,2.0,11.0,49,0.00,,,0.00,,2013-03-30 17:22:00,
2013-03-30 13:32:00,56.0,37.0,30.12,ESE,121,2.0,9.0,49,0.00,,,0.00,,2013-03-30 17:32:00,
2013-03-30 13:42:00,56.0,37.0,30.12,ESE,121,2.0,9.0,49,0.00,,,0.00,,2013-03-30 17:42:00,
2013-03-30 13:52:00,57.0,36.0,30.11,SSE,164,3.0,12.0,46,0.00,,,0.00,,2013-03-30 17:52:00,
2013-03-30 14:02:00,58.0,36.0,30.10,SSE,158,4.0,13.0,44,0.00,,,0.00,,2013-03-30 18:02:00,
2013-03-30 14:12:00,57.0,38.0,30.10,SSE,162,3.0,9.0,49,0.00,,,0.00,,2013-03-30 18:12:00,
2013-03-30 14:22:00,57.0,38.0,30.10,SSE,162,3.0,9.0,49,0.00,,,0.00,,2013-03-30 18:22:00,
2013-03-30 14:32:00,58.0,39.0,30.09,South,182,3.0,8.0,49,0.00,,,0.00,,2013-03-30 18:32:00,
2013-03-30 14:42:00,58.0,39.0,30.09,South,182,3.0,8.0,49,0.00,,,0.00,,2013-03-30 18:42:00,
2013-03-30 14:53:00,58.0,37.0,30.09,SSE,164,2.0,9.0,45,0.00,,,0.00,,2013-03-30 18:53:00,
2013-03-30 15:02:00,58.0,37.0,30.08,SSW,212,2.0,6.0,45,0.00,,,0.00,,2013-03-30 19:02:00,
2013-03-30 15:13:00,58.0,37.0,30.08,SSW,212,2.0,6.0,45,0.00,,,0.00,,2013-03-30 19:13:00,
2013-03-30 15:22:00,59.0,38.0,30.07,SSE,149,5.0,13.0,46,0.00,,,0.00,,2013-03-30 19:22:00,
2013-03-30 15:32:00,59.0,39.0,30.06,SSE,150,3.0,12.0,47,0.00,,,0.00,,2013-03-30 19:32:00,
2013-03-30 15:42:00,59.0,39.0,30.06,SSE,150,3.0,12.0,47,0.00,,,0.00,,2013-03-30 19:42:00,
2013-03-30 15:53:00,60.0,39.0,30.05,SE,135,5.0,12.0,45,0.00,,,0.00,,2013-03-30 19:53:00,
2013-03-30 16:02:00,60.0,39.0,30.05,SSE,163,3.0,13.0,45,0.00,,,0.00,,2013-03-30 20:02:00,
2013-03-30 16:12:00,60.0,39.0,30.05,SSE,163,3.0,13.0,45,0.00,,,0.00,,2013-03-30 20:12:00,
2013-03-30 16:22:00,60.0,39.0,30.04,SSE,158,4.0,10.0,46,0.00,,,0.00,,2013-03-30 20:22:00,
2013-03-30 16:32:00,61.0,40.0,30.03,South,170,2.0,8.0,46,0.00,,,0.00,,2013-03-30 20:32:00,
2013-03-30 16:42:00,61.0,40.0,30.03,South,170,2.0,8.0,46,0.00,,,0.00,,2013-03-30 20:42:00,
2013-03-30 16:53:00,61.0,40.0,30.02,SE,133,2.0,8.0,46,0.00,,,0.00,,2013-03-30 20:53:00,
2013-03-30 17:02:00,62.0,40.0,30.01,SSE,150,5.0,13.0,44,0.00,,,0.00,,2013-03-30 21:02:00,
2013-03-30 17:12:00,62.0,40.0,30.01,SSE,150,5.0,13.0,44,0.00,,,0.00,,2013-03-30 21:12:00,
2013-03-30 17:22:00,61.0,39.0,30.01,SSE,167,2.0,7.0,44,0.00,,,0.00,,2013-03-30 21:22:00,
2013-03-30 17:33:00,60.0,40.0,30.00,SSE,148,3.0,8.0,47,0.00,,,0.00,,2013-03-30 21:33:00,
2013-03-30 17:43:00,60.0,40.0,30.00,SSE,148,3.0,8.0,47,0.00,,,0.00,,2013-03-30 21:43:00,
2013-03-30 17:53:00,59.0,40.0,30.00,SSE,153,2.0,7.0,49,0.00,,,0.00,,2013-03-30 21:53:00,
2013-03-30 18:03:00,59.0,40.0,29.99,SE,125,3.0,8.0,49,0.00,,,0.00,,2013-03-30 22:03:00,
2013-03-30 18:13:00,59.0,40.0,29.99,SE,125,3.0,8.0,49,0.00,,,0.00,,2013-03-30 22:13:00,
2013-03-30 18:23:00,58.0,39.0,29.99,SSE,149,2.0,6.0,49,0.00,,,0.00,,2013-03-30 22:23:00,
2013-03-30 18:33:00,58.0,39.0,29.99,SSE,157,2.0,8.0,49,0.00,,,0.00,,2013-03-30 22:33:00,
2013-03-30 18:43:00,58.0,39.0,29.99,SSE,157,2.0,8.0,49,0.00,,,0.00,,2013-03-30 22:43:00,
2013-03-30 18:53:00,58.0,39.0,29.98,SSE,152,3.0,8.0,50,0.00,,,0.00,,2013-03-30 22:53:00,
2013-03-30 19:02:00,57.0,38.0,29.98,SSE,153,2.0,9.0,49,0.00,,,0.00,,2013-03-30 23:02:00,
2013-03-30 19:12:00,57.0,38.0,29.98,SSE,153,2.0,9.0,49,0.00,,,0.00,,2013-03-30 23:12:00,
2013-03-30 19:22:00,57.0,38.0,29.98,SSE,147,1.0,7.0,49,0.00,,,0.00,,2013-03-30 23:22:00,
2013-03-30 19:32:00,57.0,37.0,29.97,SSE,153,2.0,9.0,47,0.00,,,0.00,,2013-03-30 23:32:00,
2013-03-30 19:42:00,57.0,37.0,29.97,SSE,153,2.0,9.0,47,0.00,,,0.00,,2013-03-30 23:42:00,
2013-03-30 19:53:00,56.0,37.0,29.97,SSE,151,2.0,7.0,48,0.00,,,0.00,,2013-03-30 23:53:00,
2013-03-30 20:02:00,56.0,38.0,29.96,SSE,158,1.0,5.0,50,0.00,,,0.00,,2013-03-31 00:02:00,
2013-03-30 20:12:00,56.0,38.0,29.96,SSE,158,1.0,5.0,50,0.00,,,0.00,,2013-03-31 00:12:00,
2013-03-30 20:22:00,55.0,36.0,29.96,SSE,166,1.0,5.0,49,0.00,,,0.00,,2013-03-31 00:22:00,
2013-03-30 20:32:00,55.0,36.0,29.95,SSE,159,1.0,5.0,49,0.00,,,0.00,,2013-03-31 00:32:00,
2013-03-30 20:42:00,55.0,36.0,29.95,SSE,159,1.0,5.0,49,0.00,,,0.00,,2013-03-31 00:42:00,
2013-03-30 20:53:00,54.0,35.0,29.95,South,172,0.0,4.0,49,0.00,,,0.00,,2013-03-31 00:53:00,
2013-03-30 21:02:00,54.0,35.0,29.95,SSE,158,1.0,6.0,49,0.00,,,0.00,,2013-03-31 01:02:00,
2013-03-30 21:12:00,54.0,35.0,29.95,SSE,158,1.0,6.0,49,0.00,,,0.00,,2013-03-31 01:12:00,
2013-03-30 21:22:00,54.0,35.0,29.94,South,188,0.0,3.0,49,0.00,,,0.00,,2013-03-31 01:22:00,
2013-03-30 21:32:00,54.0,36.0,29.94,SSE,154,0.0,5.0,50,0.00,,,0.00,,2013-03-31 01:32:00,
2013-03-30 21:42:00,54.0,36.0,29.94,SSE,154,0.0,5.0,50,0.00,,,0.00,,2013-03-31 01:42:00,
2013-03-30 21:53:00,53.0,36.0,29.94,SSE,166,0.0,3.0,52,0.00,,,0.00,,2013-03-31 01:53:00,
2013-03-30 22:02:00,53.0,36.0,29.94,SSE,166,0.0,3.0,52,0.00,,,0.00,,2013-03-31 02:02:00,
2013-03-30 22:12:00,53.0,36.0,29.94,SSE,166,0.0,3.0,52,0.00,,,0.00,,2013-03-31 02:12:00,
2013-03-30 22:22:00,53.0,36.0,29.94,SSE,162,0.0,5.0,52,0.00,,,0.00,,2013-03-31 02:22:00,
2013-03-30 22:32:00,53.0,36.0,29.94,SSE,151,0.0,3.0,53,0.00,,,0.00,,2013-03-31 02:32:00,
2013-03-30 22:42:00,53.0,36.0,29.94,SSE,151,0.0,3.0,53,0.00,,,0.00,,2013-03-31 02:42:00,
2013-03-30 22:52:00,53.0,37.0,29.94,SSE,151,0.0,3.0,54,0.00,,,0.00,,2013-03-31 02:52:00,
2013-03-30 23:02:00,52.0,36.0,29.94,South,182,0.0,2.0,55,0.00,,,0.00,,2013-03-31 03:02:00,
2013-03-30 23:12:00,52.0,36.0,29.94,South,182,0.0,2.0,55,0.00,,,0.00,,2013-03-31 03:12:00,
2013-03-30 23:22:00,52.0,37.0,29.94,South,182,0.0,2.0,57,0.00,,,0.00,,2013-03-31 03:22:00,
2013-03-30 23:33:00,52.0,38.0,29.93,South,182,0.0,1.0,58,0.00,,,0.00,,2013-03-31 03:33:00,
2013-03-30 23:43:00,52.0,38.0,29.93,South,182,0.0,1.0,58,0.00,,,0.00,,2013-03-31 03:43:00,
2013-03-30 23:54:00,52.0,39.0,29.93,South,182,0.0,3.0,60,0.00,,,0.00,,2013-03-31 03:54:00,